TAP1035 LEBL-LPPT

Flight info

Callsign TAP1035
Flight time N/A
Altitude 35000
Route SENIA DCT DORMI DCT CRETA DCT NEXAS/N0457F370 DCT DISVU DCT ADUXO N975 PALIO DCT AKOKI DCT GOTOR DCT TLD DCT NATPA DCT MELON DCT CCS DCT ELVAR DCT UPULO
Aircraft A320/M-SDE3FGHIJ1RWXYZ/LB1

Departure

Time 2026-05-04 18:35
Airport Josep Tarradellas Barcelona-El Prat Airport (LEBL)

Arrival

Time N/A
Airport Lisbon Humberto Delgado Airport (LPPT)
Time Latitude Longitude Altitude Speed Heading
2026-05-04 17:54 41.29053 2.08110 19 ft 0 kts 335°
2026-05-04 18:07 41.29052 2.08110 19 ft 0 kts 335°
2026-05-04 18:16 41.29053 2.08110 19 ft 0 kts 335°
2026-05-04 18:17 41.29052 2.08110 19 ft 0 kts 335°
2026-05-04 18:25 41.29033 2.08122 19 ft 4 kts 335°
2026-05-04 18:25 41.29009 2.08135 20 ft 4 kts 347°
2026-05-04 18:25 41.28983 2.08137 19 ft 4 kts 21°
2026-05-04 18:26 41.28968 2.08122 20 ft 1 kts 65°
2026-05-04 18:26 41.28966 2.08118 20 ft 0 kts 65°
2026-05-04 18:29 41.28959 2.08131 19 ft 5 kts 140°
2026-05-04 18:30 41.28795 2.08213 17 ft 17 kts 156°
2026-05-04 18:30 41.28710 2.08262 17 ft 11 kts 107°
2026-05-04 18:30 41.28735 2.08359 17 ft 11 kts 65°
2026-05-04 18:31 41.28774 2.08471 20 ft 13 kts 66°
2026-05-04 18:31 41.28809 2.08575 18 ft 12 kts 65°
2026-05-04 18:31 41.28844 2.08676 17 ft 15 kts 65°
2026-05-04 18:31 41.28895 2.08825 16 ft 18 kts 66°
2026-05-04 18:32 41.28946 2.08972 19 ft 17 kts 65°
2026-05-04 18:32 41.28991 2.09105 16 ft 16 kts 65°
2026-05-04 18:32 41.29043 2.09258 17 ft 18 kts 65°
2026-05-04 18:32 41.29094 2.09405 17 ft 17 kts 65°
2026-05-04 18:33 41.29139 2.09537 17 ft 15 kts 65°
2026-05-04 18:33 41.29201 2.09717 17 ft 25 kts 66°
2026-05-04 18:33 41.29265 2.09907 18 ft 15 kts 65°
2026-05-04 18:33 41.29272 2.10023 16 ft 15 kts 109°
2026-05-04 18:34 41.29236 2.10156 15 ft 14 kts 104°
2026-05-04 18:34 41.29249 2.10276 14 ft 12 kts 115°
2026-05-04 18:34 41.29195 2.10253 16 ft 12 kts 250°
2026-05-04 18:34 41.29095 2.09961 20 ft 69 kts 245°
2026-05-04 18:35 41.28802 2.09106 17 ft 131 kts 245°
2026-05-04 18:35 41.28365 2.07825 209 ft 161 kts 246°
2026-05-04 18:35 41.27820 2.06552 909 ft 159 kts 225°
2026-05-04 18:35 41.26816 2.05961 1532 ft 168 kts 186°
2026-05-04 18:36 41.25571 2.05906 1866 ft 190 kts 184°
2026-05-04 18:36 41.24170 2.05865 2210 ft 211 kts 184°
2026-05-04 18:36 41.22693 2.05827 3021 ft 213 kts 184°
2026-05-04 18:36 41.21211 2.05789 3872 ft 214 kts 185°
2026-05-04 18:37 41.19715 2.05745 4710 ft 216 kts 185°
2026-05-04 18:37 41.18203 2.05679 5490 ft 218 kts 190°
2026-05-04 18:37 41.16749 2.05121 6124 ft 224 kts 210°
2026-05-04 18:37 41.15334 2.04158 6784 ft 232 kts 210°
2026-05-04 18:38 41.13892 2.03165 7579 ft 236 kts 212°
2026-05-04 18:38 41.12604 2.01712 7995 ft 254 kts 237°
2026-05-04 18:38 41.11949 1.99513 8708 ft 262 kts 254°
2026-05-04 18:38 41.11495 1.97159 9548 ft 265 kts 254°
2026-05-04 18:39 41.11045 1.94798 10270 ft 273 kts 254°
2026-05-04 18:39 41.10554 1.92255 10547 ft 296 kts 254°
2026-05-04 18:39 41.10020 1.89507 10796 ft 318 kts 254°
2026-05-04 18:39 41.09458 1.86615 11353 ft 327 kts 254°
2026-05-04 18:40 41.08886 1.83672 12069 ft 332 kts 254°
2026-05-04 18:40 41.08308 1.80694 12792 ft 335 kts 253°
2026-05-04 18:40 41.07725 1.77687 13538 ft 339 kts 253°
2026-05-04 18:40 41.07133 1.74650 14209 ft 342 kts 253°
2026-05-04 18:41 41.06532 1.71586 14860 ft 345 kts 253°
2026-05-04 18:41 41.05924 1.68501 15519 ft 348 kts 253°
2026-05-04 18:41 41.05310 1.65390 16160 ft 350 kts 253°
2026-05-04 18:41 41.04689 1.62256 16799 ft 353 kts 253°
2026-05-04 18:42 41.04062 1.59096 17432 ft 356 kts 253°
2026-05-04 18:42 41.03431 1.55908 18057 ft 359 kts 253°
2026-05-04 18:42 41.02797 1.52701 18609 ft 362 kts 253°
2026-05-04 18:42 41.02156 1.49469 18873 ft 363 kts 253°
2026-05-04 18:43 41.01516 1.46236 18949 ft 363 kts 253°
2026-05-04 18:43 41.00870 1.42985 19415 ft 366 kts 253°
2026-05-04 18:43 41.00221 1.39724 19977 ft 368 kts 253°
2026-05-04 18:43 40.99567 1.36445 20522 ft 370 kts 253°
2026-05-04 18:44 40.98908 1.33145 21046 ft 372 kts 253°
2026-05-04 18:44 40.98693 1.32071 21207 ft 372 kts 253°
2026-05-04 18:44 40.97573 1.26494 22077 ft 376 kts 253°
2026-05-04 18:44 40.96909 1.23189 22559 ft 378 kts 253°
2026-05-04 18:45 40.96233 1.19816 23047 ft 380 kts 253°
2026-05-04 18:45 40.95552 1.16423 23531 ft 383 kts 253°
2026-05-04 18:45 40.94866 1.13010 23930 ft 385 kts 253°
2026-05-04 18:45 40.94174 1.09584 24317 ft 387 kts 253°
2026-05-04 18:46 40.93473 1.06140 24697 ft 389 kts 253°
2026-05-04 18:46 40.92770 1.02680 25081 ft 390 kts 253°
2026-05-04 18:46 40.92062 0.99204 25455 ft 392 kts 253°
2026-05-04 18:46 40.91583 0.96848 25697 ft 394 kts 253°
2026-05-04 18:47 40.90868 0.93345 26088 ft 395 kts 252°
2026-05-04 18:47 40.90149 0.89829 26463 ft 397 kts 252°
2026-05-04 18:47 40.89426 0.86300 26827 ft 399 kts 252°
2026-05-04 18:47 40.88699 0.82756 27200 ft 401 kts 252°
2026-05-04 18:48 40.87975 0.79240 27558 ft 402 kts 252°
2026-05-04 18:48 40.87263 0.75659 27899 ft 405 kts 256°
2026-05-04 18:48 40.86902 0.71957 28236 ft 410 kts 264°
2026-05-04 18:48 40.86916 0.68173 28556 ft 413 kts 267°
2026-05-04 18:49 40.86953 0.64377 28883 ft 414 kts 267°
2026-05-04 18:49 40.86984 0.60560 29204 ft 416 kts 267°
2026-05-04 18:49 40.87009 0.56733 29525 ft 417 kts 267°
2026-05-04 18:49 40.87032 0.52901 29873 ft 418 kts 267°
2026-05-04 18:50 40.87052 0.49062 30293 ft 416 kts 266°
2026-05-04 18:50 40.87070 0.45250 30681 ft 415 kts 266°
2026-05-04 18:50 40.87088 0.41448 31057 ft 413 kts 266°
2026-05-04 18:50 40.87106 0.37662 31424 ft 412 kts 266°
2026-05-04 18:51 40.87126 0.33882 31799 ft 411 kts 266°
2026-05-04 18:51 40.87146 0.30113 32187 ft 410 kts 266°
2026-05-04 18:51 40.87164 0.26352 32544 ft 409 kts 266°
2026-05-04 18:51 40.87180 0.22602 32898 ft 408 kts 266°
2026-05-04 18:52 40.87196 0.18867 33264 ft 407 kts 266°
2026-05-04 18:52 40.87209 0.15134 33631 ft 406 kts 266°
2026-05-04 18:52 40.87218 0.11412 33968 ft 405 kts 266°
2026-05-04 18:52 40.87226 0.07690 34261 ft 404 kts 266°
2026-05-04 18:53 40.87235 0.03977 34533 ft 404 kts 266°
2026-05-04 18:53 40.87245 0.00268 34807 ft 404 kts 266°
2026-05-04 18:53 40.87253 -0.03449 34949 ft 405 kts 266°
2026-05-04 18:54 40.87266 -0.10909 34980 ft 406 kts 266°
2026-05-04 18:54 40.87269 -0.18372 34980 ft 406 kts 266°
2026-05-04 18:55 40.87265 -0.25799 34989 ft 407 kts 266°
2026-05-04 18:55 40.87256 -0.37011 34988 ft 407 kts 266°
2026-05-04 18:56 40.87241 -0.44497 34987 ft 407 kts 266°
2026-05-04 18:56 40.87221 -0.51983 34988 ft 408 kts 266°
2026-05-04 18:57 40.87197 -0.59478 34988 ft 408 kts 266°
2026-05-04 18:57 40.87172 -0.66970 34985 ft 408 kts 266°
2026-05-04 18:58 40.87139 -0.74464 34985 ft 408 kts 266°
2026-05-04 18:58 40.86402 -0.81824 34984 ft 403 kts 251°
2026-05-04 18:59 40.84487 -0.88780 34981 ft 403 kts 249°
2026-05-04 18:59 40.82560 -0.95733 34984 ft 403 kts 249°
2026-05-04 19:00 40.80635 -1.02680 34988 ft 403 kts 249°
2026-05-04 19:00 40.78704 -1.09621 34991 ft 403 kts 249°
2026-05-04 19:01 40.76768 -1.16554 34990 ft 403 kts 249°
2026-05-04 19:01 40.74823 -1.23483 34998 ft 403 kts 249°
2026-05-04 19:02 40.72882 -1.30403 34998 ft 402 kts 249°
2026-05-04 19:02 40.70943 -1.37312 35004 ft 402 kts 250°
2026-05-04 19:03 40.69005 -1.44208 35010 ft 401 kts 250°
2026-05-04 19:03 40.67069 -1.51082 35009 ft 400 kts 250°
2026-05-04 19:04 40.65124 -1.57939 35012 ft 399 kts 249°
2026-05-04 19:04 40.63177 -1.64777 35010 ft 398 kts 249°
2026-05-04 19:05 40.61246 -1.71559 35015 ft 398 kts 250°
2026-05-04 19:05 40.59307 -1.78366 35006 ft 397 kts 250°
2026-05-04 19:06 40.57361 -1.85168 35004 ft 397 kts 250°
2026-05-04 19:06 40.55406 -1.91957 34994 ft 397 kts 250°
2026-05-04 19:07 40.53447 -1.98740 34994 ft 397 kts 250°
2026-05-04 19:07 40.51486 -2.05530 34991 ft 397 kts 250°
2026-05-04 19:08 40.49524 -2.12312 34984 ft 397 kts 250°
2026-05-04 19:08 40.47559 -2.19096 34980 ft 397 kts 250°
2026-05-04 19:09 40.45588 -2.25874 34977 ft 397 kts 249°
2026-05-04 19:09 40.43608 -2.32644 34982 ft 397 kts 250°
2026-05-04 19:10 40.41627 -2.39408 34977 ft 397 kts 250°
2026-05-04 19:10 40.39657 -2.46115 34981 ft 396 kts 249°
2026-05-04 19:11 40.37667 -2.52853 34982 ft 396 kts 249°
2026-05-04 19:11 40.36057 -2.59744 34977 ft 395 kts 254°
2026-05-04 19:12 40.33815 -2.70145 34980 ft 395 kts 254°
2026-05-04 19:13 40.32304 -2.77064 34973 ft 395 kts 254°
2026-05-04 19:13 40.30793 -2.83980 34975 ft 395 kts 254°